| time (UTC) | temp F | wind direction | speed knots | gust knots | rain 1hr in | rain 24hr in | rain mn in | humidity % | barometer mb |
| 20260503001020 | 55 | 30 | 0.0 | 1.7 | 0.00 | 0.00 | 0.00 | 78 | 1019.4 |
| 20260503000520 | 55 | 30 | 0.9 | 1.7 | 0.00 | 0.00 | 0.00 | 79 | 1019.4 |
| 20260503000020 | 55 | 30 | 0.9 | 1.7 | 0.00 | 0.00 | 0.00 | 78 | 1019.4 |
| 20260502235520 | 55 | 30 | 0.0 | 1.7 | 0.00 | 0.00 | 0.00 | 78 | 1019.5 |
| 20260502235020 | 55 | 329 | 0.0 | 1.7 | 0.00 | 0.00 | 0.00 | 77 | 1019.6 |
| 20260502234520 | 56 | 321 | 0.0 | 0.0 | 0.00 | 0.00 | 0.00 | 75 | 1019.6 |
| 20260502234020 | 56 | 321 | 0.9 | 1.7 | 0.00 | 0.00 | 0.00 | 74 | 1019.6 |
| 20260502233520 | 56 | 321 | 0.0 | 0.0 | 0.00 | 0.00 | 0.00 | 74 | 1019.6 |
| 20260502232020 | 56 | 321 | 0.9 | 1.7 | 0.00 | 0.00 | 0.00 | 75 | 1019.7 |
| 20260502231522 | 56 | 321 | 0.9 | 1.7 | 0.00 | 0.00 | 0.00 | 75 | 1019.7 |
| 20260502231019 | 56 | 275 | 0.0 | 1.7 | 0.00 | 0.00 | 0.00 | 75 | 1019.8 |
| 20260502230020 | 56 | 190 | 0.0 | 0.0 | 0.00 | 0.00 | 0.00 | 73 | 1019.8 |
| 20260502225520 | 57 | 190 | 0.0 | 0.0 | 0.00 | 0.00 | 0.00 | 73 | 1019.8 |
| 20260502224520 | 57 | 190 | 0.0 | 0.0 | 0.00 | 0.00 | 0.00 | 73 | 1019.7 |
| 20260502224020 | 57 | 190 | 0.0 | 0.0 | 0.00 | 0.00 | 0.00 | 72 | 1019.7 |
| 20260502223520 | 57 | 190 | 0.0 | 0.0 | 0.00 | 0.00 | 0.00 | 72 | 1019.7 |
| 20260502223020 | 57 | 190 | 0.0 | 0.0 | 0.00 | 0.00 | 0.00 | 72 | 1019.7 |
| 20260502222520 | 57 | 190 | 0.0 | 0.0 | 0.00 | 0.00 | 0.00 | 71 | 1019.7 |
| 20260502222021 | 58 | 190 | 0.0 | 0.0 | 0.00 | 0.00 | 0.00 | 70 | 1019.7 |
| 20260502221520 | 58 | 190 | 0.0 | 0.0 | 0.00 | 0.00 | 0.00 | 69 | 1019.8 |
| 20260502220526 | 58 | 190 | 0.0 | 0.0 | 0.00 | 0.00 | 0.00 | 68 | 1019.7 |
| 20260502220022 | 59 | 190 | 0.0 | 0.0 | 0.00 | 0.00 | 0.00 | 68 | 1019.7 |
| 20260502215523 | 59 | 190 | 0.0 | 0.0 | 0.00 | 0.00 | 0.00 | 67 | 1019.7 |
| 20260502215019 | 59 | 190 | 0.0 | 0.0 | 0.00 | 0.00 | 0.00 | 66 | 1019.7 |
| 20260502214519 | 59 | 190 | 0.0 | 0.0 | 0.00 | 0.00 | 0.00 | 65 | 1019.7 |
| 20260502213519 | 59 | 190 | 0.0 | 0.9 | 0.00 | 0.00 | 0.00 | 65 | 1019.7 |
| 20260502213020 | 60 | 190 | 0.0 | 0.9 | 0.00 | 0.00 | 0.00 | 64 | 1019.7 |
| 20260502212519 | 60 | 189 | 0.9 | 2.6 | 0.00 | 0.00 | 0.00 | 64 | 1019.7 |
| 20260502212020 | 60 | 166 | 0.0 | 1.7 | 0.00 | 0.00 | 0.00 | 64 | 1019.7 |
| 20260502211520 | 61 | 175 | 0.9 | 1.7 | 0.00 | 0.00 | 0.00 | 63 | 1019.7 |
| 20260502211020 | 61 | 190 | 1.7 | 2.6 | 0.00 | 0.00 | 0.00 | 62 | 1019.7 |
| 20260502210519 | 61 | 192 | 0.9 | 1.7 | 0.00 | 0.00 | 0.00 | 63 | 1019.7 |
| 20260502210019 | 61 | 171 | 0.9 | 1.7 | 0.00 | 0.00 | 0.00 | 61 | 1019.7 |
| 20260502205519 | 62 | 167 | 0.0 | 1.7 | 0.00 | 0.00 | 0.00 | 60 | 1019.7 |
| 20260502205020 | 62 | 169 | 0.0 | 1.7 | 0.00 | 0.00 | 0.00 | 59 | 1019.7 |
| 20260502204519 | 63 | 159 | 0.9 | 1.7 | 0.00 | 0.00 | 0.00 | 58 | 1019.7 |
| 20260502204020 | 63 | 175 | 0.0 | 1.7 | 0.00 | 0.00 | 0.00 | 57 | 1019.8 |
| 20260502202519 | 64 | 157 | 0.9 | 2.6 | 0.00 | 0.00 | 0.00 | 56 | 1019.9 |
| 20260502202022 | 64 | 180 | 0.9 | 1.7 | 0.00 | 0.00 | 0.00 | 55 | 1019.9 |
| 20260502201519 | 64 | 160 | 1.7 | 2.6 | 0.00 | 0.00 | 0.00 | 54 | 1019.9 |
| 20260502201019 | 64 | 158 | 0.9 | 2.6 | 0.00 | 0.00 | 0.00 | 55 | 1020.0 |
| 20260502195519 | 64 | 170 | 0.9 | 2.6 | 0.00 | 0.00 | 0.00 | 54 | 1020.0 |
| 20260502195019 | 64 | 180 | 0.9 | 2.6 | 0.00 | 0.00 | 0.00 | 55 | 1020.0 |
| 20260502194519 | 64 | 168 | 0.9 | 1.7 | 0.00 | 0.00 | 0.00 | 55 | 1019.9 |
| 20260502194019 | 64 | 162 | 0.0 | 1.7 | 0.00 | 0.00 | 0.00 | 56 | 1019.9 |
| 20260502193519 | 64 | 154 | 0.9 | 2.6 | 0.00 | 0.00 | 0.00 | 56 | 1019.8 |
| 20260502193019 | 64 | 154 | 0.9 | 1.7 | 0.00 | 0.00 | 0.00 | 56 | 1019.8 |
| 20260502192520 | 64 | 162 | 0.9 | 1.7 | 0.00 | 0.00 | 0.00 | 57 | 1019.8 |
| 20260502191519 | 65 | 161 | 0.9 | 0.9 | 0.00 | 0.00 | 0.00 | 55 | 1019.8 |
| 20260502190519 | 65 | 150 | 0.9 | 1.7 | 0.00 | 0.00 | 0.00 | 52 | 1019.7 |
| 20260502190019 | 66 | 149 | 1.7 | 2.6 | 0.00 | 0.00 | 0.00 | 52 | 1019.6 |
| 20260502185519 | 66 | 141 | 1.7 | 2.6 | 0.00 | 0.00 | 0.00 | 53 | 1019.6 |
| 20260502185034 | 66 | 153 | 0.9 | 2.6 | 0.00 | 0.00 | 0.00 | 53 | 1019.6 |
| 20260502184520 | 67 | 170 | 0.0 | 0.9 | 0.00 | 0.00 | 0.00 | 52 | 1019.6 |
| 20260502184019 | 67 | 168 | 0.9 | 1.7 | 0.00 | 0.00 | 0.00 | 51 | 1019.6 |
| 20260502182019 | 69 | 136 | 0.9 | 2.6 | 0.00 | 0.00 | 0.00 | 48 | 1019.4 |
| 20260502181019 | 70 | 162 | 0.9 | 1.7 | 0.00 | 0.00 | 0.00 | 46 | 1019.5 |
| 20260502180518 | 70 | 170 | 0.9 | 1.7 | 0.00 | 0.00 | 0.00 | 45 | 1019.5 |
| 20260502170519 | 75 | 182 | 1.7 | 4.3 | 0.00 | 0.00 | 0.00 | 37 | 1019.6 |
| 20260502164034 | 76 | 197 | 0.9 | 1.7 | 0.00 | 0.00 | 0.00 | 34 | 1019.7 |
| 20260502163518 | 76 | 243 | 0.9 | 2.6 | 0.00 | 0.00 | 0.00 | 33 | 1019.7 |
| 20260502163020 | 76 | 183 | 2.6 | 2.6 | 0.00 | 0.00 | 0.00 | 34 | 1019.8 |
| 20260502162519 | 76 | 129 | 0.9 | 2.6 | 0.00 | 0.00 | 0.00 | 34 | 1019.9 |
| 20260502161518 | 76 | 238 | 3.5 | 5.2 | 0.00 | 0.00 | 0.00 | 35 | 1019.9 |
| 20260502161018 | 77 | 227 | 2.6 | 4.3 | 0.00 | 0.00 | 0.00 | 34 | 1020.0 |
| 20260502160519 | 77 | 218 | 4.3 | 6.1 | 0.00 | 0.00 | 0.00 | 35 | 1020.0 |
| 20260502152018 | 76 | 303 | 1.7 | 6.1 | 0.00 | 0.00 | 0.00 | 34 | 1020.5 |
| 20260502151518 | 77 | 258 | 1.7 | 5.2 | 0.00 | 0.00 | 0.00 | 34 | 1020.6 |
| 20260502151020 | 76 | 181 | 2.6 | 6.1 | 0.00 | 0.00 | 0.00 | 33 | 1020.6 |
| 20260502150519 | 76 | 327 | 0.0 | 6.1 | 0.00 | 0.00 | 0.00 | 33 | 1020.6 |
| 20260502130518 | 76 | 205 | 2.6 | 17.4 | 0.00 | 0.00 | 0.00 | 35 | 1022.2 |
| 20260502123518 | 75 | 208 | 5.2 | 10.4 | 0.00 | 0.00 | 0.00 | 38 | 1022.6 |
| 20260502123017 | 75 | 209 | 3.5 | 6.1 | 0.00 | 0.00 | 0.00 | 37 | 1022.7 |
| 20260502122521 | 76 | 239 | 2.6 | 7.0 | 0.00 | 0.00 | 0.00 | 37 | 1022.7 |
| 20260502121518 | 76 | 208 | 2.6 | 7.0 | 0.00 | 0.00 | 0.00 | 37 | 1022.8 |
| 20260502121020 | 75 | 201 | 1.7 | 4.3 | 0.00 | 0.00 | 0.00 | 38 | 1022.9 |
| 20260502120518 | 75 | 254 | 6.1 | 8.7 | 0.00 | 0.00 | 0.00 | 37 | 1023.0 |
| 20260502115525 | 75 | 243 | 5.2 | 7.8 | 0.00 | 0.00 | 0.00 | 36 | 1023.1 |
| 20260502115017 | 75 | 316 | 4.3 | 7.8 | 0.00 | 0.00 | 0.00 | 37 | 1023.2 |
| 20260502114534 | 74 | 208 | 0.9 | 2.6 | 0.00 | 0.00 | 0.00 | 37 | 1023.2 |
| 20260502114017 | 75 | 248 | 3.5 | 6.1 | 0.00 | 0.00 | 0.00 | 37 | 1023.3 |
| 20260502113517 | 74 | 248 | 4.3 | 7.0 | 0.00 | 0.00 | 0.00 | 39 | 1023.3 |
| 20260502113017 | 74 | 229 | 5.2 | 10.4 | 0.00 | 0.00 | 0.00 | 37 | 1023.4 |
| 20260502112518 | 73 | 142 | 2.6 | 7.0 | 0.00 | 0.00 | 0.00 | 38 | 1023.5 |
| 20260502112018 | 74 | 209 | 4.3 | 8.7 | 0.00 | 0.00 | 0.00 | 38 | 1023.6 |
| 20260502111024 | 74 | 181 | 4.3 | 12.2 | 0.00 | 0.00 | 0.00 | 39 | 1023.7 |
| 20260502110019 | 74 | 237 | 2.6 | 4.3 | 0.00 | 0.00 | 0.00 | 41 | 1023.9 |
| 20260502105519 | 74 | 213 | 3.5 | 5.2 | 0.00 | 0.00 | 0.00 | 40 | 1024.0 |
| 20260502105019 | 73 | 220 | 2.6 | 7.8 | 0.00 | 0.00 | 0.00 | 39 | 1024.1 |
| 20260502104519 | 74 | 191 | 6.1 | 8.7 | 0.00 | 0.00 | 0.00 | 39 | 1024.2 |
| 20260502103517 | 73 | 249 | 1.7 | 5.2 | 0.00 | 0.00 | 0.00 | 38 | 1024.3 |
| 20260502103018 | 74 | 251 | 1.7 | 4.3 | 0.00 | 0.00 | 0.00 | 39 | 1024.3 |
| 20260502102519 | 73 | 254 | 3.5 | 7.8 | 0.00 | 0.00 | 0.00 | 40 | 1024.4 |
| 20260502101517 | 72 | 196 | 1.7 | 5.2 | 0.00 | 0.00 | 0.00 | 41 | 1024.4 |
| 20260502101017 | 72 | 107 | 3.5 | 7.0 | 0.00 | 0.00 | 0.00 | 39 | 1024.5 |
| 20260502100517 | 72 | 176 | 2.6 | 6.1 | 0.00 | 0.00 | 0.00 | 39 | 1024.6 |
| 20260502091517 | 71 | 324 | 1.7 | 4.3 | 0.00 | 0.00 | 0.00 | 39 | 1025.1 |
| 20260502091017 | 70 | 260 | 2.6 | 6.1 | 0.00 | 0.00 | 0.00 | 41 | 1025.1 |
| 20260502090517 | 70 | 284 | 1.7 | 4.3 | 0.00 | 0.00 | 0.00 | 42 | 1025.2 |
| 20260502071517 | 63 | 334 | 1.7 | 2.6 | 0.00 | 0.00 | 0.00 | 65 | 1025.6 |
| 20260502071022 | 62 | 307 | 2.6 | 4.3 | 0.00 | 0.00 | 0.00 | 67 | 1025.6 |
| 20260502070517 | 61 | 269 | 1.7 | 2.6 | 0.00 | 0.00 | 0.00 | 69 | 1025.6 |
| 20260502070016 | 60 | 299 | 1.7 | 2.6 | 0.00 | 0.00 | 0.00 | 70 | 1025.7 |
| 20260502064517 | 59 | 297 | 1.7 | 2.6 | 0.00 | 0.00 | 0.00 | 70 | 1025.7 |
| 20260502064017 | 59 | 285 | 0.9 | 2.6 | 0.00 | 0.00 | 0.00 | 70 | 1025.7 |
| 20260502063517 | 58 | 319 | 1.7 | 2.6 | 0.00 | 0.00 | 0.00 | 70 | 1025.7 |
| 20260502063016 | 58 | 302 | 2.6 | 2.6 | 0.00 | 0.00 | 0.00 | 71 | 1025.8 |
| 20260502062517 | 57 | 294 | 1.7 | 4.3 | 0.00 | 0.00 | 0.00 | 72 | 1025.7 |
| 20260502062016 | 56 | 289 | 1.7 | 2.6 | 0.00 | 0.00 | 0.00 | 73 | 1025.7 |
| 20260502061017 | 55 | 271 | 1.7 | 1.7 | 0.00 | 0.00 | 0.00 | 74 | 1025.8 |
| 20260502060518 | 55 | 272 | 1.7 | 1.7 | 0.00 | 0.00 | 0.00 | 75 | 1025.7 |
| 20260502060019 | 54 | 272 | 0.9 | 2.6 | 0.00 | 0.00 | 0.00 | 74 | 1025.7 |
| 20260502054518 | 53 | 280 | 0.9 | 1.7 | 0.00 | 0.00 | 0.00 | 76 | 1025.9 |
| 20260502053518 | 52 | 280 | 0.9 | 1.7 | 0.00 | 0.00 | 0.00 | 75 | 1025.8 |
| 20260502053017 | 51 | 296 | 1.7 | 1.7 | 0.00 | 0.00 | 0.00 | 75 | 1025.8 |
| 20260502052517 | 51 | 293 | 2.6 | 2.6 | 0.00 | 0.00 | 0.00 | 75 | 1025.9 |
| 20260502052016 | 50 | 292 | 2.6 | 2.6 | 0.00 | 0.00 | 0.00 | 76 | 1025.8 |
| 20260502051016 | 49 | 298 | 0.9 | 1.7 | 0.00 | 0.00 | 0.00 | 79 | 1025.8 |
| 20260502050517 | 49 | 298 | 0.9 | 1.7 | 0.00 | 0.00 | 0.00 | 80 | 1025.8 |
| 20260502050016 | 48 | 298 | 0.9 | 1.7 | 0.00 | 0.00 | 0.00 | 80 | 1025.8 |
| 20260502044516 | 47 | 46 | 0.0 | 0.9 | 0.00 | 0.00 | 0.00 | 83 | 1025.8 |
| 20260502044016 | 46 | 46 | 0.9 | 0.9 | 0.00 | 0.00 | 0.00 | 84 | 1025.8 |
| 20260502043016 | 46 | 0 | 0.0 | 0.9 | 0.00 | 0.00 | 0.00 | 85 | 1025.8 |
| 20260502042516 | 46 | 340 | 0.0 | 0.0 | 0.00 | 0.00 | 0.00 | 84 | 1025.8 |
| 20260502042020 | 46 | 340 | 0.0 | 0.0 | 0.00 | 0.00 | 0.00 | 84 | 1025.7 |
| 20260502041516 | 46 | 340 | 0.0 | 0.0 | 0.00 | 0.00 | 0.00 | 83 | 1025.7 |
| 20260502041017 | 46 | 340 | 0.0 | 0.0 | 0.00 | 0.00 | 0.00 | 83 | 1025.7 |
| 20260502040519 | 46 | 348 | 0.0 | 0.9 | 0.00 | 0.00 | 0.00 | 83 | 1025.7 |
| 20260502040018 | 46 | 0 | 0.0 | 0.0 | 0.00 | 0.00 | 0.00 | 82 | 1025.7 |
| 20260502035516 | 47 | 1 | 0.0 | 0.0 | 0.00 | 0.00 | 0.00 | 83 | 1025.7 |
| 20260502034516 | 47 | 178 | 0.0 | 0.0 | 0.00 | 0.00 | 0.00 | 83 | 1025.7 |
| 20260502034016 | 47 | 178 | 0.0 | 0.0 | 0.00 | 0.00 | 0.00 | 83 | 1025.7 |
| 20260502033516 | 47 | 174 | 0.0 | 0.0 | 0.00 | 0.00 | 0.00 | 83 | 1025.7 |
| 20260502033016 | 47 | 170 | 0.0 | 0.0 | 0.00 | 0.00 | 0.00 | 84 | 1025.6 |
| 20260502032516 | 47 | 166 | 0.0 | 0.0 | 0.00 | 0.00 | 0.00 | 83 | 1025.6 |
| 20260502032022 | 47 | 163 | 0.0 | 0.0 | 0.00 | 0.00 | 0.00 | 83 | 1025.6 |
| 20260502031516 | 47 | 163 | 0.0 | 0.0 | 0.00 | 0.00 | 0.00 | 83 | 1025.7 |
| 20260502031020 | 47 | 163 | 0.0 | 0.0 | 0.00 | 0.00 | 0.00 | 83 | 1025.6 |
| 20260502030516 | 47 | 163 | 0.0 | 0.0 | 0.00 | 0.00 | 0.00 | 83 | 1025.7 |
| 20260502030016 | 47 | 163 | 0.0 | 0.0 | 0.00 | 0.00 | 0.00 | 83 | 1025.7 |
| 20260502025516 | 47 | 163 | 0.0 | 0.0 | 0.00 | 0.00 | 0.00 | 83 | 1025.7 |
| 20260502024517 | 47 | 163 | 0.9 | 1.7 | 0.00 | 0.00 | 0.00 | 82 | 1025.7 |
| 20260502024017 | 47 | 163 | 0.0 | 0.0 | 0.00 | 0.00 | 0.00 | 82 | 1025.7 |
| 20260502023516 | 48 | 163 | 0.0 | 0.0 | 0.00 | 0.00 | 0.00 | 82 | 1025.7 |
| 20260502023015 | 48 | 163 | 0.0 | 0.0 | 0.00 | 0.00 | 0.00 | 82 | 1025.7 |
| 20260502022516 | 48 | 163 | 0.0 | 0.0 | 0.00 | 0.00 | 0.00 | 81 | 1025.7 |
| 20260502022016 | 48 | 163 | 0.0 | 0.0 | 0.00 | 0.00 | 0.00 | 81 | 1025.7 |
| 20260502021516 | 48 | 163 | 0.0 | 0.0 | 0.00 | 0.00 | 0.00 | 81 | 1025.7 |
| 20260502021023 | 48 | 163 | 0.0 | 0.0 | 0.00 | 0.00 | 0.00 | 80 | 1025.7 |
| 20260502020517 | 48 | 163 | 0.0 | 0.0 | 0.00 | 0.00 | 0.00 | 80 | 1025.7 |
| 20260502020016 | 49 | 163 | 0.0 | 0.0 | 0.00 | 0.00 | 0.00 | 80 | 1025.7 |
| 20260502015516 | 49 | 163 | 0.0 | 0.0 | 0.00 | 0.00 | 0.00 | 80 | 1025.6 |
| 20260502015017 | 49 | 163 | 0.0 | 0.0 | 0.00 | 0.00 | 0.00 | 80 | 1025.6 |
| 20260502014516 | 49 | 163 | 0.0 | 0.0 | 0.00 | 0.00 | 0.00 | 80 | 1025.6 |
| 20260502014016 | 48 | 163 | 0.0 | 0.9 | 0.00 | 0.00 | 0.00 | 80 | 1025.6 |
| 20260502013516 | 49 | 163 | 0.0 | 0.9 | 0.00 | 0.00 | 0.00 | 79 | 1025.6 |
| 20260502013016 | 49 | 163 | 0.0 | 0.0 | 0.00 | 0.00 | 0.00 | 80 | 1025.6 |
| 20260502012516 | 49 | 163 | 1.7 | 2.6 | 0.00 | 0.00 | 0.00 | 80 | 1025.6 |
| 20260502012017 | 49 | 87 | 0.0 | 0.9 | 0.00 | 0.00 | 0.00 | 79 | 1025.7 |
| 20260502011515 | 49 | 87 | 0.0 | 0.0 | 0.00 | 0.00 | 0.00 | 79 | 1025.6 |
| 20260502011017 | 49 | 87 | 0.0 | 0.0 | 0.00 | 0.00 | 0.00 | 79 | 1025.6 |
| 20260502010516 | 49 | 87 | 0.0 | 0.0 | 0.00 | 0.00 | 0.00 | 79 | 1025.6 |
| 20260502005516 | 50 | 87 | 0.0 | 1.7 | 0.00 | 0.00 | 0.00 | 79 | 1025.6 |
| 20260502004515 | 50 | 87 | 0.0 | 0.0 | 0.00 | 0.00 | 0.00 | 78 | 1025.6 |
| 20260502004016 | 50 | 87 | 0.0 | 0.0 | 0.00 | 0.00 | 0.00 | 79 | 1025.6 |
| 20260502003515 | 49 | 87 | 0.0 | 0.0 | 0.00 | 0.00 | 0.00 | 80 | 1025.6 |
| 20260502003015 | 49 | 87 | 0.0 | 0.0 | 0.00 | 0.00 | 0.00 | 80 | 1025.6 |
| 20260502002515 | 49 | 87 | 0.0 | 0.9 | 0.00 | 0.00 | 0.00 | 79 | 1025.7 |
| 20260502001523 | 50 | 87 | 0.0 | 0.9 | 0.00 | 0.00 | 0.00 | 78 | 1025.7 |